Home > Weather > Coral Harbour > Past weeks

Flag for Canada Weather for the Past 2 Weeks in Coral Harbour, Nunavut, Canada

Now
32 °F

Partly sunny.


Feels Like: 18 °F
Forecast: 23 / 29 °F
Wind: 29 mph from North

Location: Coral Harbour

Current Time: May 6, 2016 at 2:09:00 PM

Latest Report: May 6, 2016 at 1:00 PM


Visibility: 15 mi

Pressure: 29.78 "Hg

Humidity: 80%

Dew Point: 27 °F

Location of Coral HarbourLocation

Historic Weather in Coral Harbour — Graph

°F

Coral Harbour Temperature Yesterday

Maximum temperature yesterday: 19 °F (at 10:00 PM)
Minimum temperature yesterday: 9 °F (at 4:00 AM)
Average temperature yesterday: 15 °F

High & Low Weather Summary for the Past Weeks

 TemperatureHumidityPressure
High32 °F (May 1, 2:00 PM)100% (May 1, 8:00 PM)30.46 "Hg (May 1, 8:00 PM)
Low-8 °F (Apr 22, 4:00 AM)62% (Apr 25, 11:00 AM)29.54 "Hg (Apr 21, 7:00 PM)
Average14 °F81%30.06 "Hg
* Reported Apr 21 7:00 PM — May 6 12:00 Noon, Coral Harbour, Weather by CustomWeather, © 2016

Note: Actual official high and low records may vary slightly from our data, if they occured in-between our weather recording intervals... More about our weather records

Advertising

Coral Harbour Weather History for the Previous 24 Hours

Scroll right to see more
 ConditionsComfort  
Time TempWeatherWind HumidityBarometerVisibility
12:00 PM
Fri, May 6
30 °FPartly sunny.24 mph86%29.78 "Hg15 mi
11:00 AM30 °FPartly sunny.23 mph80%29.78 "Hg15 mi
10:00 AM30 °FBroken clouds.28 mph80%29.78 "Hg15 mi
9:00 AM30 °FBroken clouds.21 mph80%29.79 "Hg15 mi
8:00 AM28 °FBroken clouds.22 mph86%29.80 "Hg15 mi
7:00 AM28 °FMostly cloudy.15 mph80%29.82 "Hg15 mi
6:00 AM27 °FMostly cloudy.15 mph86%29.83 "Hg15 mi
5:00 AM25 °FMostly cloudy.18 mph93%29.83 "Hg15 mi
4:00 AM25 °FMostly cloudy.20 mph93%29.84 "Hg15 mi
3:00 AM25 °FOvercast.16 mph86%29.84 "Hg15 mi
2:00 AM23 °FPassing clouds.18 mph86%29.83 "Hg15 mi
1:00 AM25 °FPassing clouds.13 mph86%29.84 "Hg15 mi
12:00 AM21 °FPassing clouds.13 mph93%29.85 "Hg15 mi
11:00 PM
Thu, May 5
19 °FPassing clouds.2 mph93%29.85 "Hg15 mi
10:00 PM19 °FScattered clouds.20 mph86%29.86 "Hg15 mi
9:00 PM14 °FPassing clouds.16 mph85%29.87 "Hg15 mi
8:00 PM16 °FPartly sunny.18 mph79%29.87 "Hg15 mi
7:00 PM18 °FScattered clouds.20 mph79%29.88 "Hg15 mi
6:00 PM18 °FScattered clouds.6 mph79%29.90 "Hg15 mi
5:00 PM18 °FLow level haze.17 mph73%29.88 "Hg15 mi
4:00 PM18 °FLow level haze.17 mph73%29.88 "Hg15 mi
3:00 PM18 °FLow level haze.24 mph73%29.87 "Hg15 mi
2:00 PM18 °FLow level haze.22 mph79%29.87 "Hg15 mi
Weather by CustomWeather, © 2016

See weather overviewHow to use our weather pages